Location: Follega
(52.8850°N, 5.7362°E)
Time: 23:47:08
(UTC+00:00)

CARTOSAT-1 - Visible Passes

Search period start: 01 October 2020 00:00
Search period end: 11 October 2020 00:00
Orbit: 615 x 619 km, 97.8° (Epoch: 01 October)

Date Brightness Start Highest point End Pass type
(mag) Time Alt. Az. Time Alt. Az. Time Alt. Az.
01 Oct 5.7 19:16:51 13° NE 19:16:51 13° NE 19:18:06 10° NNE visible
01 Oct 5.5 20:53:58 25° N 20:53:58 25° N 20:55:48 10° NNW visible
02 Oct 5.6 19:33:40 15° NE 19:33:40 15° NE 19:35:14 10° NNE visible
02 Oct 5.8 21:10:48 22° NNW 21:10:48 22° NNW 21:12:20 10° NNW visible
03 Oct 5.6 19:50:29 18° NNE 19:50:29 18° NNE 19:52:08 10° N visible
03 Oct 6.2 21:27:36 18° NNW 21:27:36 18° NNW 21:28:49 10° NNW visible
04 Oct 5.6 20:07:18 19° NNE 20:07:18 19° NNE 20:08:55 10° N visible
04 Oct 6.5 21:44:26 15° NNW 21:44:26 15° NNW 21:45:13 10° NNW visible
05 Oct 5.7 20:24:08 20° N 20:24:08 20° N 20:25:37 10° N visible
05 Oct 6.7 22:01:14 11° NW 22:01:14 11° NW 22:01:31 10° NW visible
06 Oct 5.8 20:40:57 19° N 20:40:57 19° N 20:42:16 10° N visible
07 Oct 5.9 19:20:38 12° NNE 19:20:38 12° NNE 19:21:17 10° NNE visible
07 Oct 6.1 20:57:45 18° NNW 20:57:45 18° NNW 20:58:51 10° NNW visible
08 Oct 5.9 19:37:27 14° NNE 19:37:27 14° NNE 19:38:21 10° NNE visible
08 Oct 6.3 21:14:34 15° NNW 21:14:34 15° NNW 21:15:22 10° NNW visible
09 Oct 5.9 19:54:15 15° NNE 19:54:15 15° NNE 19:55:14 10° N visible
09 Oct 6.6 21:31:23 13° NNW 21:31:23 13° NNW 21:31:49 10° NNW visible
10 Oct 6.0 20:11:05 15° N 20:11:05 15° N 20:12:00 10° N visible
10 Oct 6.8 21:48:11 10° NNW 21:48:11 10° NNW 21:48:12 10° NNW visible
